Ord, NE

10:21 PM CST on February 23, 2018 (GMT -0600)
Sharp

Weather History for KODX - October, 2012

Change the Weather History Date:

Sunday, October 7, 2012

  Actual Average Record
Temperature  
Mean Temperature 37 °F 53 °F  
Max Temperature 58 °F 67 °F 87 °F (2006)
Min Temperature 16 °F 39 °F 16 °F (2012)
Degree Days  
Heating Degree Days 28 12  
Month to date heating degree days 136 76  
Since 1 July heating degree days 278 213  
Cooling Degree Days 0 0  
Month to date cooling degree days 0 6  
Year to date cooling degree days 1220 844  
Moisture  
Dew Point 20 °F    
Average Humidity 58    
Maximum Humidity 92    
Minimum Humidity 23    
Precipitation  
Precipitation 0.00 in 0.06 in 1.39 in (1992)
Month to date precipitation 0.01 0.52  
Year to date precipitation 11.06 21.87  
Sea Level Pressure  
Sea Level Pressure 30.18 in    
Wind  
Wind Speed 8 mph (SW)    
Max Wind Speed 20 mph    
Max Gust Speed 29 mph    
Visibility 10 miles    
Events      
T = Trace of Precipitation, MM = Missing Value Source: NWS Daily Summary

Daily Weather History Graph

Daily Weather History Graph

Search for Another Location

Airport or City:

Trip Planner

Search our weather history database for the weather conditions in past years. The results will help you decide how hot, cold, wet, or windy it might be!

Date:

Astronomy

Oct. 07, 2012 Rise Set
Actual Time 7:39 AM CDT 7:06 PM CDT
Civil Twilight 7:11 AM CDT 7:34 PM CDT
Nautical Twilight 6:39 AM CDT 8:06 PM CDT
Astronomical Twilight 6:07 AM CDT 8:38 PM CDT
Moon No Moon Rise 2:21 PM CDT (10/7)
Length of Visible Light 12h 22m
Length of Day
11h 26m
Waning Gibbous, 56% of the Moon is Illuminated
Oct 7
Waning Gibbous
Oct 8
Last Quarter
Oct 15
New
Oct 21
First Quarter
Oct 29
Full

Hourly Weather History & Observations

Time (CDT) Temp. Windchill Dew Point Humidity Pressure Visibility Wind Dir Wind Speed Gust Speed Precip Events Conditions
12:53 AM 25.0 °F - 18.0 °F 75% 30.36 in 10.0 mi Calm Calm - N/A   Clear
1:53 AM 26.1 °F 21.9 °F 21.9 °F 84% 30.35 in 10.0 mi NW 3.5 mph - N/A   Clear
2:53 AM 21.9 °F - 19.0 °F 89% 30.35 in 10.0 mi Calm Calm - N/A   Clear
3:53 AM 21.0 °F 13.4 °F 19.0 °F 92% 30.33 in 10.0 mi SW 5.8 mph - N/A   Clear
4:53 AM 19.9 °F - 18.0 °F 92% 30.32 in 10.0 mi Calm Calm - N/A   Clear
5:53 AM 19.0 °F - 15.1 °F 85% 30.30 in 10.0 mi Calm Calm - N/A   Clear
6:53 AM 16.0 °F 10.4 °F 12.9 °F 88% 30.32 in 10.0 mi SSW 3.5 mph - N/A   Clear
7:41 AM 17.6 °F - 14.0 °F 86% 30.22 in 10.0 mi Calm Calm - N/A   Partly Cloudy
7:53 AM 16.0 °F - 12.9 °F 88% 30.32 in 10.0 mi Calm Calm - N/A   Clear
8:53 AM 27.0 °F 23.0 °F 23.0 °F 85% 30.30 in 10.0 mi SSW 3.5 mph - N/A   Clear
9:53 AM 39.0 °F 32.8 °F 27.0 °F 62% 30.27 in 10.0 mi WSW 9.2 mph - N/A   Clear
10:53 AM 45.0 °F 38.9 °F 26.1 °F 48% 30.23 in 10.0 mi WSW 12.7 mph - N/A   Clear
11:53 AM 50.0 °F - 19.9 °F 31% 30.20 in 10.0 mi WSW 17.3 mph 24.2 mph N/A   Clear
12:53 PM 52.0 °F - 21.0 °F 30% 30.17 in 10.0 mi SW 19.6 mph 28.8 mph N/A   Clear
1:53 PM 54.0 °F - 24.1 °F 31% 30.13 in 10.0 mi WSW 13.8 mph 24.2 mph N/A   Clear
2:53 PM 55.0 °F - 21.9 °F 28% 30.08 in 10.0 mi West 12.7 mph 20.7 mph N/A   Clear
3:53 PM 57.0 °F - 23.0 °F 27% 30.06 in 10.0 mi West 11.5 mph 21.9 mph N/A   Clear
4:53 PM 57.0 °F - 21.9 °F 26% 30.04 in 10.0 mi WSW 11.5 mph 21.9 mph N/A   Clear
5:53 PM 57.0 °F - 19.0 °F 23% 30.02 in 10.0 mi SW 11.5 mph 19.6 mph N/A   Clear
6:53 PM 53.1 °F - 19.0 °F 26% 30.01 in 10.0 mi SSW 8.1 mph - N/A   Clear
7:53 PM 42.1 °F 37.1 °F 19.9 °F 41% 30.04 in 10.0 mi SSW 8.1 mph - N/A   Clear
8:53 PM 39.9 °F 34.5 °F 19.9 °F 45% 30.02 in 10.0 mi SSW 8.1 mph - N/A   Clear
9:53 PM 42.1 °F 36.1 °F 21.0 °F 43% 30.01 in 10.0 mi SW 10.4 mph - N/A   Clear
10:53 PM 39.9 °F 34.5 °F 23.0 °F 51% 30.01 in 10.0 mi SSW 8.1 mph - N/A   Clear
11:53 PM 37.0 °F 31.6 °F 23.0 °F 57% 29.99 in 10.0 mi SSW 6.9 mph - N/A   Clear